Home > Weather > Corrientes > Past weeks

Flag for Argentina Weather for the Past 2 Weeks in Corrientes, Corrientes, Argentina

Now
81 °F

Thunderstorms. Partly sunny.


Feels Like: 86 °F
Forecast: 76 / 90 °F
Wind: 6 mph from North

Location: Resistencia Aero.

Current Time: Feb 10, 2016 at 12:39:40 PM

Latest Report: Feb 10, 2016 at 12:00 PM


Visibility: N/A

Pressure: 29.98 "Hg

Humidity: 84%

Dew point: 75 °F

Location of CorrientesLocation

Historic Weather in Corrientes — Graph

°F

Corrientes Temperature Yesterday

Maximum temperature yesterday: 91 °F (at 11:00 AM)
Minimum temperature yesterday: 81 °F (at 2:00 AM)
Average temperature yesterday: 85 °F

High & Low Weather Summary for the Past Weeks

 TemperatureHumidityPressure
High99 °F (Jan 29, 1:00 PM)100% (Jan 27, 5:00 AM)30.07 "Hg (Jan 27, 5:00 AM)
Low63 °F (Jan 27, 5:00 AM)24% (Feb 9, 2:00 AM)29.68 "Hg (Feb 8, 5:00 PM)
Average81 °F77%29.86 "Hg
* Reported Jan 26 11:00 AM — Feb 10 11:00 AM, Corrientes, Weather by CustomWeather, © 2016

Note: Actual official high and low records may vary slightly from our data, if they occured in-between our weather recording intervals... More about our weather records

Advertising

Corrientes Weather History for the Previous 24 Hours

 ConditionsComfort  
Time TempWeatherWind HumidityBarometerVisibility
11:00 AM
Wed, Feb 10
81 °FThundershowers. Cloudy.6 mph84%29.98 "HgN/A
10:00 AM81 °FBroken clouds.2 mph89%29.95 "HgN/A
9:00 AM81 °FCloudy.No wind89%29.95 "HgN/A
8:00 AM79 °FMore clouds than sun.2 mph94%29.92 "HgN/A
7:00 AM77 °FSunny.2 mph94%29.89 "Hg10 mi
6:00 AM77 °FMore clouds than sun.No wind94%29.86 "HgN/A
5:00 AM77 °FOvercast.No wind94%29.86 "HgN/A
4:00 AM77 °FPartly cloudy.No wind94%29.83 "HgN/A
3:00 AM79 °FPartly cloudy.2 mph94%29.86 "HgN/A
2:00 AM79 °FPartly cloudy.2 mph94%29.86 "HgN/A
1:00 AM79 °FPartly cloudy.6 mph94%29.86 "HgN/A
12:00 AM81 °FPassing clouds.2 mph94%29.89 "HgN/A
11:00 PM
Tue, Feb 9
82 °FPassing clouds.9 mph89%29.89 "HgN/A
10:00 PM82 °FPartly cloudy.6 mph89%29.86 "HgN/A
9:00 PM84 °FPartly cloudy.9 mph84%29.86 "Hg5 mi
8:00 PM84 °FClear.6 mph79%29.83 "Hg5 mi
7:00 PM86 °FPartly cloudy.6 mph79%29.80 "HgN/A
6:00 PM90 °FPartly sunny.6 mph71%29.83 "HgN/A
5:00 PM88 °FBroken clouds.9 mph75%29.83 "HgN/A
4:00 PM88 °FBroken clouds.15 mph75%29.86 "HgN/A
3:00 PM90 °FBroken clouds.9 mph71%29.86 "HgN/A
2:00 PM88 °FThundershowers. Broken clouds.15 mph70%29.86 "HgN/A
1:00 PM88 °FThunderstorms. Broken clouds.21 mph79%29.89 "HgN/A
12:00 PM91 °FThunderstorms. Partly sunny.6 mph71%29.89 "HgN/A
Weather by CustomWeather, © 2016

See weather overviewHow to use our weather pages